PEGASUS DEB, 39309

Orbit data source: Space-Track

PEGASUS DEB, 39309 is space debris in LEO originally from a launch on Thu, 19 May 1994 UTC launched from the Air Force Western Test Range (AFWTR). Debris objects in space refer to the collection of defunct objects orbiting the Earth. Examples of debris include non-operational satellites, rocket bodies, and fragments generated from explosions, collisions, or faulty payload assembly.

Loading next visibility...
Identifier
39309, 1994-029AEU
Orbit
LEO
Country
Flag of USUS
Related business
Manufacturer
Unknown
Mission
Spacecraft
Bus & Motor
Unknown
Mass
Unknown
Launch date (UTC)
1994-05-19 (32 years ago)
Launch vehicle
Unknown
Launch site
Air Force Western Test Range (AFWTR)
Object type
Payload
Rocket body
Debris
Shape & HBR
Unknown shape, 0.1 m
Radar Cross Section
Small (<0.1 m²)

Expand to show TLE details & history
Last TLE update: 1 week ago

TLE from 1 week ago
0 PEGASUS DEB
1 39309U 94029AEU 26054.14364906  .00002342  00000-0  45281-3 0  9992
2 39309  81.7405   6.5005 0232369 184.7349 175.1651 14.47195941721177
Epoch: 2026-02-23T03:26Z
TLE epoch observation values (Epoch: 2026-02-23T03:26:51.278Z)
Latitude
-0.00006°
Longitude
161.74508°
Altitude
902.544 km
Speed
7.315 km/s
True Right ascension
00h 26m 00s
True Declination
0° 00' 00"
Sunlit
Object was in daylight at epoch
Visualization orbit readout
Latitude
Unknown
Longitude
Unknown
Altitude
Unknown
Speed
Unknown
Apparent Right ascension
Unknown
Apparent Declination
Unknown
Sunlit
N/A
Visualization observer readout
Local Sidereal Time
07:56:38
Azimuth
Unknown
Elevation
Unknown
Doppler factor
Unknown
Orbital elements
Apogee altitude
897.136 km
Perigee altitude
566.705 km
Semi-major axis
7,110.057 km
Eccentricity
0.02324
Inclination
81.7405°
RAAN
6.5005°
Arg. of periapsis
184.7349°
True anomaly
175.38321°
Mean anomaly
175.1651°
Eccentric anomaly
175.27478°
Mean motion
3.62021 °/min
Orbital period
99.44 mins
BSTAR
0.00045281
Loading maneuver chart data...
Computing Atmospheric mass density...
Loading historical data...
Loading historical data...
Loading historical data...
Loading historical data...
Loading historical data...
Loading historical data...
Loading historical data...

Documentation

Showing up to 5 results
|